SCP
0 0 0 0 0 0 0 0 0 0 0 0 0 0 0 -0 0 0 0 0 0 0 0 0 0 0 0 0 0 0 0 0 0 0 0 0 0 0 0 0 0 0 0 0 0 0 0 0 0 0 0 0 0 0
-0 0 0 0 0 0 0 0 0 0 0 0 0 0 0 0 0 0 -0 0 0 0 0 0 0 0 0 0 0 0 0 0 0 0 0 0 0 0 0 0 0 0 0 0 0 0 0 0 0 0 0 0 0 0
-0 -0 0 0 0 0 0 0 0 0 0 0 0 0 0 0 0 0 0 0 0 0 0 0 0 0 0 0 0 0 0 0 0 0 0 0 0 0 0 0 0 0 0 0 0 0 0 0 0 0 0 0 0 0
-0 0 0 0 0 0 0 0 0 0 0 0 0 0 0 0 0 0 0 -0 0 0 0 0 0 0 0 0 0 0 0 0 0 0 0 0 0 0 0 0 0 0 0 0 0 0 0 0 0 0 0 0 0 0
0 0 0 0 0 0 0 0 0 0 0 0 0 0 0 0 0 0 0 -0 0 0 0 0 0 0 0 0 0 0 0 0 0 0 0 0 0 0 0 0 0 0 0 0 0 0 0 0 0 0 0 0 0 0
-0 0 0 -0 -0 -0 0 0 -0 -0 0 0 -0 0 0 0 0 0 -0 0 0 0 0 0 0 0 0 0 0 0 0 0 0 0 0 0 0 0 0 0 0 0 0 0 0 0 0 0 0 0 0 0 0 0
0 0 0 0 0 0 0 0 0 0 0 0 0 0 0 0 0 0 -0 -0 -0 0 -0 -0 0 0 0 0 0 0 0 0 0 0 0 0 0 0 0 0 0 0 0 0 0 0 0 0 0 0 0 0 0 0
-0 -0 0 0 0 0 0 0 0 0 0 0 0 0 0 -0 0 0 0 -0 0 0 0 -0 -0 0 0 0 0 0 0 0 0 0 0 0 0 0 0 0 0 0 0 0 0 0 0 0 0 0 0 0 0 0
0 0 0 0 0 -0 -0 0 0 0 0 0 0 0 0 -0 -0 -0 0 0 0 0 -0 -0 -0 0 0 0 0 0 0 0 0 0 0 0 0 0 0 0 0 0 0 0 0 0 0 0 0 0 0 0 0 0
0 0 0 0 -0 -0 0 0 0 0 0 0 0 0 0 0 0 -0 -0 0 0 0 0 0 0 0 0 0 0 0 0 0 0 0 0 0 0 0 0 0 0 0 0 0 0 0 0 0 0 0 0 0 0 0
-0 -0 0 0 0 0 0 0 0 0 0 0 0 0 0 0 0 -0 0 0 0 0 0 0 0 0 0 0 0 0 0 0 0 0 0 0 0 0 0 0 0 0 0 0 0 0 0 0 0 0 0 0 0 0
0 0 0 0 0 0 0 0 0 -0 -0 0 0 0 0 0 0 0 0 0 0 0 0 0 0 0 0 0 0 0 0 0 0 0 0 0 0 0 0 0 0 0 0 0 0 0 0 0 0 0 0 0 0 0
0 0 0 0 0 -0 -0 -0 -0 0 0 0 0 0 -0 -0 0 0 0 0 0 0 0 0 0 0 0 0 0 0 0 0 0 0 0 0 0 0 0 0 0 0 0 0 0 0 0 0 0 0 0 0 0 0
-0 0 -0 -0 -0 -0 -0 0 0 0 0 0 0 0 0 0 0 0 0 0 0 0 0 0 0 0 0 0 0 0 0 0 0 0 0 0 0 0 0 0 0 0 0 0 0 0 0 0 0 0 0 0 0 0
0 0 -0 -0 -0 -0 -0 -0 0 0 0 0 0 0 0 0 0 0 0 0 0 0 0 0 0 0 0 0 0 0 0 0 0 0 0 0 0 0 0 0 0 0 0 0 0 0 0 0 0 0 0 0 0 0
0 0 0 0 0 0 0 0 0 0 0 0 -0 -0 0 0 0 0 0 0 0 0 0 0 0 0 0 0 0 0 0 0 0 0 0 0 0 0 0 0 0 0 0 0 0 0 0 0 0 0 0 0 0 0
0 0 0 0 0 0 0 0 0 0 0 0 0 0 0 0 0 0 0 0 0 0 0 0 0 0 0 0 0 0 0 0 0 0 0 0 0 0 0 0 0 0 0 0 0 0 0 0 0 0 0 0 0 0
0 0 0 0 0 0 0 0 0 0 0 0 0 0 0 0 0 0 0 0 0 0 0 0 0 0 0 0 0 0 0 0 0 0 0 0 0 0 0 0 0 0 0 0 0 0 0 0 0 0 0 0 0 0
0 0 -0 -0 0 0 0 0 0 0 0 0 0 0 0 0 0 0 0 0 0 0 0 0 0 0 0 0 0 0 0 0 0 0 0 0 0 0 0 0 0 0 0 0 0 0 0 0 0 0 0 0 0 0
-0 -0 -0 -0 0 0 0 0 0 0 0 0 0 0 0 0 0 0 0 0 0 0 0 0 0 0 0 0 0 0 0 0 0 0 0 0 0 0 0 0 0 0 0 0 0 0 0 0 0 0 0 0 0 0
-0 -0 -0 -0 0 0 0 0 0 0 0 0 0 0 0 0 0 0 0 0 0 0 0 0 0 0 0 0 0 0 0 0 0 0 0 0 0 0 0 0 0 0 0 0 0 0 0 0 0 0 0 0 0 0
0 -0 0 0 0 0 -0 -0 -0 -0 -0 -0 0 0 0 0 0 0 0 0 0 0 0 0 0 0 0 0 0 0 0 0 0 0 0 0 0 0 0 0 0 0 0 0 0 0 0 0 0 0 0 0 0 0
-0 -0 -0 -0 0 0 -0 -0 -0 -0 -0 -0 0 0 0 0 0 0 0 0 0 0 0 0 0 0 0 0 0 0 0 0 0 0 0 0 0 0 0 0 0 0 0 0 0 0 0 0 0 0 0 0 0 0
0 0 0 0 0 0 0 -0 -0 0 0 0 0 0 0 0 0 0 0 0 0 0 0 0 0 0 0 0 0 0 0 0 0 0 0 0 0 0 0 0 0 0 0 0 0 0 0 0 0 0 0 0 0 0
0 -0 0 -0 -0 -0 -0 0 0 0 0 0 0 0 0 0 0 0 0 0 0 0 0 0 0 0 0 0 0 0 0 0 0 0 0 0 0 0 0 0 0 0 0 0 0 0 0 0 0 0 0 0 0 0
-0 -0 0 0 0 0 0 0 0 0 0 0 0 0 0 0 0 0 0 0 0 0 0 0 0 0 0 0 0 0 0 0 0 0 0 0 0 0 0 0 0 0 0 0 0 0 0 0 0 0 0 0 0 0
0 0 0 0 0 0 0 0 0 0 0 0 0 0 0 0 0 0 0 0 0 0 0 0 0 0 0 0 0 0 0 0 0 0 0 0 0 0 0 0 0 0 0 0 0 0 0 0 0 0 0 0 0 0
0 0 0 0 0 0 0 0 0 0 0 0 0 0 0 0 0 0 0 0 0 0 0 0 0 0 0 0 0 0 0 0 0 0 0 0 0 0 0 0 0 0 0 0 0 0 0 0 0 0 0 0 0 0
0 0 0 0 0 0 0 0 0 0 0 0 0 0 0 0 0 0 0 0 0 0 0 0 0 0 0 0 0 0 0 0 0 0 0 0 0 0 0 0 0 0 0 0 0 0 0 0 0 0 0 0 0 0
0 -0 0 0 0 0 0 0 0 0 0 0 0 0 0 0 0 0 0 0 0 0 0 0 0 0 0 0 0 0 0 0 0 0 0 0 0 0 0 0 0 0 0 0 0 0 0 0 0 0 0 0 0 0
-0 0 0 0 0 0 0 0 0 0 0 0 0 0 0 0 0 0 0 0 0 0 0 0 0 0 0 0 0 0 0 0 0 0 0 0 0 0 0 0 0 0 0 0 0 0 0 0 0 0 0 0 0 0
0 0 0 0 0 0 0 0 0 0 0 0 0 0 0 0 0 0 0 0 0 0 0 0 0 0 0 0 0 0 0 0 0 0 0 0 0 0 0 0 0 0 0 0 0 0 0 0 0 0 0 0 0 0
0 0 0 0 0 0 0 0 0 0 0 0 0 0 0 0 0 0 0 0 0 0 0 0 0 0 0 0 0 0 0 0 0 0 0 0 0 0 0 0 0 0 0 0 0 0 0 0 0 0 0 0 0 0
Wind_Speed_500mb
52 54 72 110 117 117 100 96 93 91 91 95 93 90 88 86 95 90 101 38 33 8 25 7 37 40 53 60 24 20 13 6 6 10 8 8 7 11 8 11 13 14 14 7 6 6 13 18 12 16 13 24 46 36
86 90 92 90 88 83 79 78 82 84 87 85 82 85 79 73 87 80 72 49 40 19 18 19 26 49 56 68 65 39 21 16 23 7 2 6 5 4 9 7 4 4 13 12 16 13 8 16 4 17 48 57 47 44
73 72 71 69 69 71 73 75 77 78 77 79 81 78 70 71 63 77 75 47 54 25 40 32 22 36 47 66 77 33 16 20 18 18 10 5 7 8 8 9 8 6 11 8 8 5 7 11 19 45 44 52 44 39
62 65 67 67 67 68 67 68 69 71 74 74 68 69 68 62 70 80 47 45 56 13 6 15 21 24 29 56 67 80 32 32 34 25 7 6 7 12 7 8 9 11 18 12 1 3 11 13 32 44 44 42 45 46
52 56 54 53 56 50 55 57 57 58 64 65 63 65 63 62 72 92 43 38 37 27 10 26 41 40 32 54 65 73 57 57 31 9 6 6 9 9 2 5 2 15 14 11 11 34 16 24 38 42 48 46 43 45
46 49 50 51 50 49 52 51 49 56 62 63 61 58 73 70 63 71 18 51 67 55 9 6 26 10 17 56 73 79 69 48 32 14 3 4 7 8 7 6 6 26 25 30 16 52 23 48 46 45 46 43 40 37
50 51 49 53 51 49 52 57 59 62 65 65 66 67 57 52 51 50 19 18 58 43 8 7 10 16 14 32 27 34 46 19 11 15 2 5 6 4 5 8 11 25 23 24 31 56 34 51 32 44 43 42 39 39
49 51 52 49 46 48 50 54 60 62 60 63 66 60 44 40 43 34 14 21 51 44 9 5 7 12 9 6 10 9 13 11 9 8 5 5 6 7 2 3 31 33 39 47 46 25 44 49 53 47 43 47 49 49
50 50 49 45 42 42 45 56 61 61 66 59 56 49 43 48 33 44 38 25 40 20 5 2 5 7 9 9 9 9 12 7 11 3 4 4 5 2 8 13 35 48 17 42 35 40 53 60 56 54 55 53 54 54
51 50 48 48 43 52 51 53 54 58 59 61 54 15 15 36 20 33 32 9 10 9 4 3 2 1 7 7 6 8 8 7 6 3 13 6 5 5 9 28 38 27 26 47 52 42 53 56 58 58 54 50 48 50
48 47 45 49 52 52 51 58 58 66 69 53 25 16 56 56 21 10 10 6 5 2 4 6 2 3 6 3 6 1 5 2 6 5 9 7 6 5 10 31 36 27 38 37 22 31 41 49 62 60 53 48 47 43
50 46 46 50 55 59 57 61 69 78 60 21 45 60 30 15 10 7 6 1 8 2 4 4 7 6 9 11 11 9 4 5 6 6 7 7 2 17 25 34 34 36 32 27 30 41 43 50 51 53 53 51 45 39
51 51 48 51 53 49 62 73 77 56 37 21 14 11 10 7 4 2 4 6 3 7 8 4 3 5 7 7 7 4 9 3 2 6 4 2 14 24 33 37 37 33 31 30 37 40 45 48 48 46 48 40 39 38
51 53 57 59 64 67 59 57 35 15 13 15 9 9 7 7 7 4 1 3 4 4 5 10 9 5 12 8 3 8 1 2 5 4 1 3 17 28 30 33 36 34 34 37 41 44 51 54 48 39 38 35 36 39
58 54 51 45 49 67 68 58 12 17 14 13 11 9 8 4 9 9 8 6 10 13 13 9 12 10 7 7 5 6 5 7 6 4 5 3 26 27 31 32 33 36 36 41 47 47 45 44 39 33 33 34 33 32
68 64 53 42 38 44 36 33 33 18 13 12 19 8 13 4 12 17 22 16 20 18 17 13 5 6 8 4 9 10 5 8 5 5 17 6 24 31 34 32 35 35 38 41 40 39 35 29 31 37 36 31 28 23
48 51 48 49 46 31 36 18 15 21 16 13 11 29 15 10 11 16 23 23 19 13 5 6 10 8 4 7 8 10 7 7 23 20 11 4 20 28 31 36 33 31 33 32 30 28 29 33 34 34 35 31 25 21
39 38 40 42 40 38 50 36 19 19 19 23 9 25 40 36 25 38 45 32 14 11 11 8 11 12 9 7 6 9 15 29 23 19 17 11 15 22 30 31 29 28 27 27 27 29 30 32 33 30 26 26 25 19
34 28 30 23 17 25 15 19 20 13 22 12 27 28 34 35 50 43 40 40 44 30 16 13 11 8 6 10 10 27 32 25 22 29 27 20 13 14 20 20 22 23 25 27 29 32 34 31 29 28 26 23 18 13
16 19 22 27 15 17 16 14 15 17 9 10 29 41 26 27 36 53 55 55 47 21 19 10 8 16 13 21 22 25 29 20 20 29 33 28 22 16 17 18 24 27 30 33 32 29 28 25 19 14 14 14 15 15
44 47 41 37 58 34 20 13 16 14 14 13 14 24 24 52 62 53 55 50 42 17 14 21 27 25 22 24 25 30 35 31 29 27 28 33 28 26 27 25 23 25 25 24 23 21 15 12 9 5 4 7 10 13
37 39 47 37 23 19 22 25 16 12 12 12 13 13 12 11 17 29 43 37 20 30 19 23 26 25 31 36 33 35 33 33 37 38 35 32 37 37 36 33 27 30 28 24 18 15 12 8 5 6 12 16 18 19
28 31 26 27 18 17 10 18 12 13 8 6 8 9 9 10 11 13 15 18 18 28 31 32 29 29 34 36 39 39 34 31 38 38 35 35 34 32 28 28 25 24 22 21 14 11 10 12 14 17 20 21 22 22
26 20 20 18 25 8 10 12 11 9 9 7 6 6 6 9 12 15 7 10 24 29 27 25 21 25 31 36 42 41 39 33 35 37 34 29 31 33 28 27 23 20 18 14 12 14 16 19 22 24 26 27 26 25
18 26 17 14 19 14 11 9 10 10 7 5 7 6 4 8 6 7 5 6 25 25 26 27 25 26 30 30 31 31 26 25 25 25 28 25 24 19 18 18 18 19 19 17 17 19 21 23 25 28 30 31 30 27
16 23 12 13 8 9 4 5 6 6 5 7 5 5 8 9 9 7 5 9 16 19 19 23 23 24 29 27 23 23 23 21 17 18 23 18 17 17 19 20 21 22 24 25 24 25 26 26 27 27 27 26 26 29
12 10 18 16 8 10 13 16 15 14 9 8 5 8 7 9 6 6 8 12 12 13 12 13 15 18 18 16 15 15 15 13 12 16 16 14 16 18 21 22 23 25 29 31 33 33 35 35 34 34 34 32 31 31
14 16 8 24 20 26 8 8 7 7 4 11 9 11 7 5 4 7 8 10 11 12 14 16 18 20 20 20 17 11 9 14 15 14 16 21 25 28 28 28 29 31 34 36 37 38 38 37 37 38 41 40 39 34
16 14 14 21 14 18 19 9 8 9 13 7 8 5 7 9 13 17 20 17 6 4 6 8 9 12 14 14 12 12 11 12 12 14 17 22 25 29 32 33 35 38 40 40 38 37 33 33 38 38 38 38 34 33
14 13 11 15 10 8 18 13 20 21 26 26 24 36 37 31 23 14 10 6 4 9 11 8 6 4 6 7 9 9 12 16 20 24 29 33 36 37 38 40 41 40 39 40 41 40 40 41 41 40 38 34 32 29
9 11 13 14 10 22 26 25 31 30 32 29 32 40 28 20 24 22 18 14 11 9 7 5 4 4 5 8 12 18 23 27 32 36 39 41 41 40 39 39 40 41 40 39 38 40 41 40 40 38 35 31 29 29
14 13 12 7 6 24 26 8 10 12 11 11 12 17 15 9 7 6 9 7 6 5 6 7 8 12 15 18 23 27 32 37 39 41 40 38 38 38 39 38 37 38 38 38 38 39 39 37 36 37 37 35 34 36
16 25 23 13 10 7 5 4 7 9 9 7 7 7 7 6 6 7 4 2 5 8 9 11 14 17 21 23 28 33 37 39 38 37 36 35 34 32 34 36 37 38 39 38 37 37 36 35 35 35 34 33 32 32
Wind_Direction_500mb
145 155 159 154 157 163 164 164 172 177 184 185 185 192 194 196 201 205 205 227 200 224 287 243 195 182 200 206 194 168 152 206 69 171 149 199 127 213 101 160 177 161 143 178 89 75 273 194 141 166 200 145 166 172
106 116 127 136 142 147 155 161 170 175 179 181 185 189 185 191 196 203 204 218 211 234 279 270 250 230 219 214 198 189 202 158 174 117 164 112 109 85 138 203 154 189 176 178 175 208 244 196 215 185 157 161 170 173
106 112 120 129 140 150 157 162 168 172 177 180 183 183 188 188 192 200 199 212 208 258 288 271 268 243 241 217 206 186 198 171 166 177 162 152 135 136 154 233 112 246 162 140 105 212 216 183 179 165 169 169 177 186
110 117 121 128 137 144 151 158 166 172 175 177 181 182 188 190 188 193 198 203 200 253 246 279 270 279 234 218 205 212 214 184 174 171 121 140 140 194 206 164 151 193 140 144 7 344 106 174 177 177 180 182 178 172
118 121 126 131 139 142 152 159 164 170 175 176 177 179 181 174 175 186 198 185 179 192 332 312 304 278 209 206 208 209 209 193 162 138 117 198 143 137 341 84 229 189 166 157 214 190 169 182 180 180 170 163 165 172
124 122 122 129 130 137 145 156 165 170 168 169 170 174 168 170 168 180 213 203 205 212 273 280 310 351 172 194 200 211 219 198 189 115 237 109 137 141 131 188 243 186 187 190 167 181 193 165 166 167 164 160 160 164
129 131 133 126 122 121 123 132 140 143 146 155 162 159 166 169 157 166 192 191 205 205 254 312 321 336 135 131 142 164 175 167 162 118 117 101 49 132 105 174 182 181 183 183 174 159 131 157 162 166 166 157 154 147
140 138 136 134 134 134 131 132 140 139 141 140 147 145 151 158 169 192 217 172 171 187 243 239 240 293 73 68 96 114 100 70 57 72 141 103 82 0 260 292 145 148 148 146 158 180 181 162 156 156 158 153 147 143
145 140 139 137 135 131 135 140 140 142 140 137 142 146 156 174 184 193 157 100 171 187 237 310 167 177 339 41 87 81 102 35 4 198 38 50 35 294 321 212 152 155 164 148 134 139 148 155 154 156 156 155 151 148
148 147 147 146 139 135 133 139 141 144 142 145 149 139 132 176 141 177 223 286 156 195 234 275 263 236 125 331 106 81 59 150 159 269 117 85 276 306 252 183 166 162 151 155 134 130 150 150 155 156 160 159 159 154
156 153 150 147 145 147 152 150 150 152 151 154 174 170 122 147 111 119 218 211 175 211 98 288 244 132 107 165 138 207 121 145 128 194 131 152 216 214 142 152 169 160 161 162 177 172 169 169 165 164 163 159 155 154
167 161 156 161 158 157 164 161 156 154 165 169 109 107 89 133 170 184 198 49 45 85 258 268 28 51 47 52 54 13 81 11 78 120 87 172 171 138 135 139 148 158 159 141 151 155 166 169 168 165 160 157 157 156
157 166 170 171 167 161 155 159 164 162 153 94 79 76 68 67 106 51 61 44 78 325 324 320 39 82 134 113 96 100 71 60 18 53 164 151 121 141 134 141 143 146 145 144 150 156 162 161 161 162 157 159 159 154
140 147 153 158 155 152 161 154 147 99 77 74 78 69 36 22 46 33 359 125 153 215 73 80 69 60 25 49 357 76 4 111 72 77 55 13 127 151 143 141 144 152 160 157 156 156 155 155 157 159 157 158 167 163
125 137 146 157 163 163 152 154 147 128 55 61 53 65 60 359 24 22 34 67 31 53 87 74 52 57 29 70 34 108 53 59 45 48 7 57 147 155 159 159 155 150 152 153 154 154 153 154 153 152 161 164 167 166
109 113 116 112 120 160 157 138 132 119 74 67 45 33 2 41 23 28 25 27 28 51 55 52 86 66 44 48 47 17 59 45 22 336 334 113 153 168 174 165 154 151 154 152 152 155 157 151 161 164 161 164 168 172
97 99 103 102 104 126 165 112 67 52 52 46 20 26 23 24 19 12 17 8 31 55 56 47 51 20 18 49 41 12 32 348 336 1 8 178 179 179 171 158 153 153 151 151 149 149 163 169 168 167 166 167 176 177
106 104 110 110 102 96 70 48 70 61 54 43 51 27 45 50 34 39 35 38 50 57 44 51 43 39 35 41 28 353 330 348 39 63 66 103 149 163 163 155 149 156 158 153 163 165 166 166 168 170 177 177 181 183
110 118 129 123 123 104 73 44 53 80 52 48 48 60 60 51 54 58 56 59 70 77 78 57 48 39 45 21 336 349 0 17 26 68 74 75 99 135 152 156 156 156 156 160 168 171 173 178 181 186 184 180 185 193
122 139 131 132 92 87 83 63 65 79 64 92 69 60 63 46 47 48 52 52 58 62 49 49 38 31 37 26 28 17 23 41 87 81 74 78 95 119 124 152 155 162 163 163 163 169 165 153 147 155 181 209 230 246
87 80 87 112 69 70 83 78 74 98 100 81 79 75 78 51 46 40 37 48 52 37 60 70 67 56 53 55 54 51 49 53 67 92 89 82 85 99 103 108 120 119 118 118 127 128 143 147 154 179 245 270 282 292
76 76 65 55 70 70 64 43 85 91 79 91 55 58 60 56 42 43 45 45 52 37 59 64 62 63 57 53 58 64 70 77 83 88 93 98 96 95 96 99 106 104 102 99 99 100 95 86 45 338 318 310 304 296
61 50 49 40 71 63 54 38 62 37 70 43 46 44 37 57 72 67 73 42 46 53 59 62 69 72 75 75 75 72 72 79 82 81 82 85 89 90 92 90 87 87 86 78 61 40 14 347 326 315 310 306 301 293
57 52 35 41 44 68 65 44 48 55 59 44 57 60 36 68 72 71 70 50 30 58 65 56 63 73 75 71 67 66 63 65 78 83 79 79 83 80 75 73 66 57 48 30 1 341 329 320 316 314 312 311 308 300
63 19 31 9 31 57 44 26 18 46 58 37 61 31 11 62 67 66 75 58 36 47 44 42 52 61 70 73 72 66 65 61 62 75 76 67 64 64 57 44 29 19 11 354 341 336 328 320 315 312 310 310 308 304
70 29 47 29 15 70 73 71 56 48 74 51 49 38 55 70 64 56 65 32 44 47 41 43 54 66 68 64 65 60 59 60 48 58 72 57 47 36 27 12 4 357 352 348 343 337 332 329 325 319 316 316 314 305
55 20 27 39 37 83 72 73 64 64 57 38 350 31 56 65 63 75 75 47 55 62 58 53 51 53 58 55 51 53 52 47 42 55 54 34 17 10 0 357 353 348 345 341 340 337 334 331 326 323 323 323 319 315
64 52 62 30 46 41 89 56 51 49 16 6 66 39 88 115 74 39 79 104 87 82 72 63 60 56 55 53 52 58 60 41 29 17 358 351 346 347 347 342 337 332 330 329 327 326 325 323 321 319 319 318 317 317
47 52 61 30 49 46 36 51 57 47 357 39 90 79 85 75 96 107 126 147 131 55 43 36 51 48 43 47 51 56 44 21 358 344 344 343 342 337 335 331 328 325 322 319 318 318 316 307 307 310 315 314 306 307
37 36 89 50 56 50 28 65 87 76 78 92 101 107 95 89 90 99 117 116 91 60 49 36 22 355 11 26 20 7 2 360 354 350 347 343 340 336 334 332 330 328 325 324 323 320 314 310 308 307 308 307 303 302
51 71 72 59 78 116 114 100 95 90 85 86 116 122 124 117 97 85 77 56 31 18 2 19 29 12 351 351 352 350 349 343 343 342 339 336 334 332 331 330 329 330 329 329 329 327 327 326 324 322 319 316 313 307
40 53 107 92 101 133 152 156 80 85 79 80 89 115 115 118 100 115 56 35 353 336 5 14 353 337 347 340 335 336 337 338 335 331 331 331 330 331 330 330 333 333 333 331 329 328 330 329 326 322 323 322 319 315
71 69 86 91 128 155 147 187 94 93 90 95 103 118 103 97 121 161 154 19 352 349 346 344 341 333 332 327 327 331 330 329 329 330 329 327 326 326 326 328 329 329 330 331 332 331 332 330 327 328 331 331 329 327
Wind_Speed_850mb
52 54 72 110 117 117 100 96 93 91 91 95 93 90 88 86 95 90 101 38 33 8 25 7 37 40 53 60 24 20 13 6 6 10 8 8 7 11 8 11 13 14 14 7 6 6 13 18 12 16 13 24 46 36
86 90 92 90 88 83 79 78 82 84 87 85 82 85 79 73 87 80 72 49 40 19 18 19 26 49 56 68 65 39 21 16 23 7 2 6 5 4 9 7 4 4 13 12 16 13 8 16 4 17 48 57 47 44
73 72 71 69 69 71 73 75 77 78 77 79 81 78 70 71 63 77 75 47 54 25 40 32 22 36 47 66 77 33 16 20 18 18 10 5 7 8 8 9 8 6 11 8 8 5 7 11 19 45 44 52 44 39
62 65 67 67 67 68 67 68 69 71 74 74 68 69 68 62 70 80 47 45 56 13 6 15 21 24 29 56 67 80 32 32 34 25 7 6 7 12 7 8 9 11 18 12 1 3 11 13 32 44 44 42 45 46
52 56 54 53 56 50 55 57 57 58 64 65 63 65 63 62 72 92 43 38 37 27 10 26 41 40 32 54 65 73 57 57 31 9 6 6 9 9 2 5 2 15 14 11 11 34 16 24 38 42 48 46 43 45
46 49 50 51 50 49 52 51 49 56 62 63 61 58 73 70 63 71 18 51 67 55 9 6 26 10 17 56 73 79 69 48 32 14 3 4 7 8 7 6 6 26 25 30 16 52 23 48 46 45 46 43 40 37
50 51 49 53 51 49 52 57 59 62 65 65 66 67 57 52 51 50 19 18 58 43 8 7 10 16 14 32 27 34 46 19 11 15 2 5 6 4 5 8 11 25 23 24 31 56 34 51 32 44 43 42 39 39
49 51 52 49 46 48 50 54 60 62 60 63 66 60 44 40 43 34 14 21 51 44 9 5 7 12 9 6 10 9 13 11 9 8 5 5 6 7 2 3 31 33 39 47 46 25 44 49 53 47 43 47 49 49
50 50 49 45 42 42 45 56 61 61 66 59 56 49 43 48 33 44 38 25 40 20 5 2 5 7 9 9 9 9 12 7 11 3 4 4 5 2 8 13 35 48 17 42 35 40 53 60 56 54 55 53 54 54
51 50 48 48 43 52 51 53 54 58 59 61 54 15 15 36 20 33 32 9 10 9 4 3 2 1 7 7 6 8 8 7 6 3 13 6 5 5 9 28 38 27 26 47 52 42 53 56 58 58 54 50 48 50
48 47 45 49 52 52 51 58 58 66 69 53 25 16 56 56 21 10 10 6 5 2 4 6 2 3 6 3 6 1 5 2 6 5 9 7 6 5 10 31 36 27 38 37 22 31 41 49 62 60 53 48 47 43
50 46 46 50 55 59 57 61 69 78 60 21 45 60 30 15 10 7 6 1 8 2 4 4 7 6 9 11 11 9 4 5 6 6 7 7 2 17 25 34 34 36 32 27 30 41 43 50 51 53 53 51 45 39
51 51 48 51 53 49 62 73 77 56 37 21 14 11 10 7 4 2 4 6 3 7 8 4 3 5 7 7 7 4 9 3 2 6 4 2 14 24 33 37 37 33 31 30 37 40 45 48 48 46 48 40 39 38
51 53 57 59 64 67 59 57 35 15 13 15 9 9 7 7 7 4 1 3 4 4 5 10 9 5 12 8 3 8 1 2 5 4 1 3 17 28 30 33 36 34 34 37 41 44 51 54 48 39 38 35 36 39
58 54 51 45 49 67 68 58 12 17 14 13 11 9 8 4 9 9 8 6 10 13 13 9 12 10 7 7 5 6 5 7 6 4 5 3 26 27 31 32 33 36 36 41 47 47 45 44 39 33 33 34 33 32
68 64 53 42 38 44 36 33 33 18 13 12 19 8 13 4 12 17 22 16 20 18 17 13 5 6 8 4 9 10 5 8 5 5 17 6 24 31 34 32 35 35 38 41 40 39 35 29 31 37 36 31 28 23
48 51 48 49 46 31 36 18 15 21 16 13 11 29 15 10 11 16 23 23 19 13 5 6 10 8 4 7 8 10 7 7 23 20 11 4 20 28 31 36 33 31 33 32 30 28 29 33 34 34 35 31 25 21
39 38 40 42 40 38 50 36 19 19 19 23 9 25 40 36 25 38 45 32 14 11 11 8 11 12 9 7 6 9 15 29 23 19 17 11 15 22 30 31 29 28 27 27 27 29 30 32 33 30 26 26 25 19
34 28 30 23 17 25 15 19 20 13 22 12 27 28 34 35 50 43 40 40 44 30 16 13 11 8 6 10 10 27 32 25 22 29 27 20 13 14 20 20 22 23 25 27 29 32 34 31 29 28 26 23 18 13
16 19 22 27 15 17 16 14 15 17 9 10 29 41 26 27 36 53 55 55 47 21 19 10 8 16 13 21 22 25 29 20 20 29 33 28 22 16 17 18 24 27 30 33 32 29 28 25 19 14 14 14 15 15
44 47 41 37 58 34 20 13 16 14 14 13 14 24 24 52 62 53 55 50 42 17 14 21 27 25 22 24 25 30 35 31 29 27 28 33 28 26 27 25 23 25 25 24 23 21 15 12 9 5 4 7 10 13
37 39 47 37 23 19 22 25 16 12 12 12 13 13 12 11 17 29 43 37 20 30 19 23 26 25 31 36 33 35 33 33 37 38 35 32 37 37 36 33 27 30 28 24 18 15 12 8 5 6 12 16 18 19
28 31 26 27 18 17 10 18 12 13 8 6 8 9 9 10 11 13 15 18 18 28 31 32 29 29 34 36 39 39 34 31 38 38 35 35 34 32 28 28 25 24 22 21 14 11 10 12 14 17 20 21 22 22
26 20 20 18 25 8 10 12 11 9 9 7 6 6 6 9 12 15 7 10 24 29 27 25 21 25 31 36 42 41 39 33 35 37 34 29 31 33 28 27 23 20 18 14 12 14 16 19 22 24 26 27 26 25
18 26 17 14 19 14 11 9 10 10 7 5 7 6 4 8 6 7 5 6 25 25 26 27 25 26 30 30 31 31 26 25 25 25 28 25 24 19 18 18 18 19 19 17 17 19 21 23 25 28 30 31 30 27
16 23 12 13 8 9 4 5 6 6 5 7 5 5 8 9 9 7 5 9 16 19 19 23 23 24 29 27 23 23 23 21 17 18 23 18 17 17 19 20 21 22 24 25 24 25 26 26 27 27 27 26 26 29
12 10 18 16 8 10 13 16 15 14 9 8 5 8 7 9 6 6 8 12 12 13 12 13 15 18 18 16 15 15 15 13 12 16 16 14 16 18 21 22 23 25 29 31 33 33 35 35 34 34 34 32 31 31
14 16 8 24 20 26 8 8 7 7 4 11 9 11 7 5 4 7 8 10 11 12 14 16 18 20 20 20 17 11 9 14 15 14 16 21 25 28 28 28 29 31 34 36 37 38 38 37 37 38 41 40 39 34
16 14 14 21 14 18 19 9 8 9 13 7 8 5 7 9 13 17 20 17 6 4 6 8 9 12 14 14 12 12 11 12 12 14 17 22 25 29 32 33 35 38 40 40 38 37 33 33 38 38 38 38 34 33
14 13 11 15 10 8 18 13 20 21 26 26 24 36 37 31 23 14 10 6 4 9 11 8 6 4 6 7 9 9 12 16 20 24 29 33 36 37 38 40 41 40 39 40 41 40 40 41 41 40 38 34 32 29
9 11 13 14 10 22 26 25 31 30 32 29 32 40 28 20 24 22 18 14 11 9 7 5 4 4 5 8 12 18 23 27 32 36 39 41 41 40 39 39 40 41 40 39 38 40 41 40 40 38 35 31 29 29
14 13 12 7 6 24 26 8 10 12 11 11 12 17 15 9 7 6 9 7 6 5 6 7 8 12 15 18 23 27 32 37 39 41 40 38 38 38 39 38 37 38 38 38 38 39 39 37 36 37 37 35 34 36
16 25 23 13 10 7 5 4 7 9 9 7 7 7 7 6 6 7 4 2 5 8 9 11 14 17 21 23 28 33 37 39 38 37 36 35 34 32 34 36 37 38 39 38 37 37 36 35 35 35 34 33 32 32
Wind_Direction_850mb
145 155 159 154 157 163 164 164 172 177 184 185 185 192 194 196 201 205 205 227 200 224 287 243 195 182 200 206 194 168 152 206 69 171 149 199 127 213 101 160 177 161 143 178 89 75 273 194 141 166 200 145 166 172
106 116 127 136 142 147 155 161 170 175 179 181 185 189 185 191 196 203 204 218 211 234 279 270 250 230 219 214 198 189 202 158 174 117 164 112 109 85 138 203 154 189 176 178 175 208 244 196 215 185 157 161 170 173
106 112 120 129 140 150 157 162 168 172 177 180 183 183 188 188 192 200 199 212 208 258 288 271 268 243 241 217 206 186 198 171 166 177 162 152 135 136 154 233 112 246 162 140 105 212 216 183 179 165 169 169 177 186
110 117 121 128 137 144 151 158 166 172 175 177 181 182 188 190 188 193 198 203 200 253 246 279 270 279 234 218 205 212 214 184 174 171 121 140 140 194 206 164 151 193 140 144 7 344 106 174 177 177 180 182 178 172
118 121 126 131 139 142 152 159 164 170 175 176 177 179 181 174 175 186 198 185 179 192 332 312 304 278 209 206 208 209 209 193 162 138 117 198 143 137 341 84 229 189 166 157 214 190 169 182 180 180 170 163 165 172
124 122 122 129 130 137 145 156 165 170 168 169 170 174 168 170 168 180 213 203 205 212 273 280 310 351 172 194 200 211 219 198 189 115 237 109 137 141 131 188 243 186 187 190 167 181 193 165 166 167 164 160 160 164
129 131 133 126 122 121 123 132 140 143 146 155 162 159 166 169 157 166 192 191 205 205 254 312 321 336 135 131 142 164 175 167 162 118 117 101 49 132 105 174 182 181 183 183 174 159 131 157 162 166 166 157 154 147
140 138 136 134 134 134 131 132 140 139 141 140 147 145 151 158 169 192 217 172 171 187 243 239 240 293 73 68 96 114 100 70 57 72 141 103 82 0 260 292 145 148 148 146 158 180 181 162 156 156 158 153 147 143
145 140 139 137 135 131 135 140 140 142 140 137 142 146 156 174 184 193 157 100 171 187 237 310 167 177 339 41 87 81 102 35 4 198 38 50 35 294 321 212 152 155 164 148 134 139 148 155 154 156 156 155 151 148
148 147 147 146 139 135 133 139 141 144 142 145 149 139 132 176 141 177 223 286 156 195 234 275 263 236 125 331 106 81 59 150 159 269 117 85 276 306 252 183 166 162 151 155 134 130 150 150 155 156 160 159 159 154
156 153 150 147 145 147 152 150 150 152 151 154 174 170 122 147 111 119 218 211 175 211 98 288 244 132 107 165 138 207 121 145 128 194 131 152 216 214 142 152 169 160 161 162 177 172 169 169 165 164 163 159 155 154
167 161 156 161 158 157 164 161 156 154 165 169 109 107 89 133 170 184 198 49 45 85 258 268 28 51 47 52 54 13 81 11 78 120 87 172 171 138 135 139 148 158 159 141 151 155 166 169 168 165 160 157 157 156
157 166 170 171 167 161 155 159 164 162 153 94 79 76 68 67 106 51 61 44 78 325 324 320 39 82 134 113 96 100 71 60 18 53 164 151 121 141 134 141 143 146 145 144 150 156 162 161 161 162 157 159 159 154
140 147 153 158 155 152 161 154 147 99 77 74 78 69 36 22 46 33 359 125 153 215 73 80 69 60 25 49 357 76 4 111 72 77 55 13 127 151 143 141 144 152 160 157 156 156 155 155 157 159 157 158 167 163
125 137 146 157 163 163 152 154 147 128 55 61 53 65 60 359 24 22 34 67 31 53 87 74 52 57 29 70 34 108 53 59 45 48 7 57 147 155 159 159 155 150 152 153 154 154 153 154 153 152 161 164 167 166
109 113 116 112 120 160 157 138 132 119 74 67 45 33 2 41 23 28 25 27 28 51 55 52 86 66 44 48 47 17 59 45 22 336 334 113 153 168 174 165 154 151 154 152 152 155 157 151 161 164 161 164 168 172
97 99 103 102 104 126 165 112 67 52 52 46 20 26 23 24 19 12 17 8 31 55 56 47 51 20 18 49 41 12 32 348 336 1 8 178 179 179 171 158 153 153 151 151 149 149 163 169 168 167 166 167 176 177
106 104 110 110 102 96 70 48 70 61 54 43 51 27 45 50 34 39 35 38 50 57 44 51 43 39 35 41 28 353 330 348 39 63 66 103 149 163 163 155 149 156 158 153 163 165 166 166 168 170 177 177 181 183
110 118 129 123 123 104 73 44 53 80 52 48 48 60 60 51 54 58 56 59 70 77 78 57 48 39 45 21 336 349 0 17 26 68 74 75 99 135 152 156 156 156 156 160 168 171 173 178 181 186 184 180 185 193
122 139 131 132 92 87 83 63 65 79 64 92 69 60 63 46 47 48 52 52 58 62 49 49 38 31 37 26 28 17 23 41 87 81 74 78 95 119 124 152 155 162 163 163 163 169 165 153 147 155 181 209 230 246
87 80 87 112 69 70 83 78 74 98 100 81 79 75 78 51 46 40 37 48 52 37 60 70 67 56 53 55 54 51 49 53 67 92 89 82 85 99 103 108 120 119 118 118 127 128 143 147 154 179 245 270 282 292
76 76 65 55 70 70 64 43 85 91 79 91 55 58 60 56 42 43 45 45 52 37 59 64 62 63 57 53 58 64 70 77 83 88 93 98 96 95 96 99 106 104 102 99 99 100 95 86 45 338 318 310 304 296
61 50 49 40 71 63 54 38 62 37 70 43 46 44 37 57 72 67 73 42 46 53 59 62 69 72 75 75 75 72 72 79 82 81 82 85 89 90 92 90 87 87 86 78 61 40 14 347 326 315 310 306 301 293
57 52 35 41 44 68 65 44 48 55 59 44 57 60 36 68 72 71 70 50 30 58 65 56 63 73 75 71 67 66 63 65 78 83 79 79 83 80 75 73 66 57 48 30 1 341 329 320 316 314 312 311 308 300
63 19 31 9 31 57 44 26 18 46 58 37 61 31 11 62 67 66 75 58 36 47 44 42 52 61 70 73 72 66 65 61 62 75 76 67 64 64 57 44 29 19 11 354 341 336 328 320 315 312 310 310 308 304
70 29 47 29 15 70 73 71 56 48 74 51 49 38 55 70 64 56 65 32 44 47 41 43 54 66 68 64 65 60 59 60 48 58 72 57 47 36 27 12 4 357 352 348 343 337 332 329 325 319 316 316 314 305
55 20 27 39 37 83 72 73 64 64 57 38 350 31 56 65 63 75 75 47 55 62 58 53 51 53 58 55 51 53 52 47 42 55 54 34 17 10 0 357 353 348 345 341 340 337 334 331 326 323 323 323 319 315
64 52 62 30 46 41 89 56 51 49 16 6 66 39 88 115 74 39 79 104 87 82 72 63 60 56 55 53 52 58 60 41 29 17 358 351 346 347 347 342 337 332 330 329 327 326 325 323 321 319 319 318 317 317
47 52 61 30 49 46 36 51 57 47 357 39 90 79 85 75 96 107 126 147 131 55 43 36 51 48 43 47 51 56 44 21 358 344 344 343 342 337 335 331 328 325 322 319 318 318 316 307 307 310 315 314 306 307
37 36 89 50 56 50 28 65 87 76 78 92 101 107 95 89 90 99 117 116 91 60 49 36 22 355 11 26 20 7 2 360 354 350 347 343 340 336 334 332 330 328 325 324 323 320 314 310 308 307 308 307 303 302
51 71 72 59 78 116 114 100 95 90 85 86 116 122 124 117 97 85 77 56 31 18 2 19 29 12 351 351 352 350 349 343 343 342 339 336 334 332 331 330 329 330 329 329 329 327 327 326 324 322 319 316 313 307
40 53 107 92 101 133 152 156 80 85 79 80 89 115 115 118 100 115 56 35 353 336 5 14 353 337 347 340 335 336 337 338 335 331 331 331 330 331 330 330 333 333 333 331 329 328 330 329 326 322 323 322 319 315
71 69 86 91 128 155 147 187 94 93 90 95 103 118 103 97 121 161 154 19 352 349 346 344 341 333 332 327 327 331 330 329 329 330 329 327 326 326 326 328 329 329 330 331 332 331 332 330 327 328 331 331 329 327